CW6988 Weather Reports


time (UTC)temp
C
wind
direction
speed
KPH
gust
KPH
rain 1hr
cm
rain 24hr
cm
rain mn
cm
humidity
%
barometer
mb
20260507155527 16 213 3.2 11.3 0.00 0.00 0.00 54 1017.5
20260507155022 16 214 6.4 11.3 0.00 0.00 0.00 54 1017.5
20260507154637 16 196 3.2 8.0 0.00 0.00 0.00 57 1017.4
20260507154023 16 181 3.2 11.3 0.00 0.00 0.00 56 1017.3
20260507153530 16 190 4.8 11.3 0.00 0.00 0.00 57 1017.5
20260507153140 16 162 1.6 8.0 0.00 0.00 0.00 58 1017.4
20260507152523 15 194 3.2 8.0 0.00 0.00 0.00 59 1017.4
20260507152040 15 211 3.2 8.0 0.00 0.00 0.00 59 1017.6
20260507151613 15 180 4.8 8.0 0.00 0.00 0.00 60 1017.4
20260507151020 15 219 3.2 8.0 0.00 0.00 0.00 60 1017.4
20260507150528 14 244 4.8 9.7 0.00 0.00 0.00 59 1017.3
20260507150132 14 223 4.8 9.7 0.00 0.00 0.00 61 1017.1
20260507145527 13 204 3.2 8.0 0.00 0.00 0.00 63 1017.3
20260507145040 13 275 4.8 9.7 0.00 0.00 0.00 63 1017.2
20260507144651 13 291 4.8 11.3 0.00 0.00 0.00 63 1017.3
20260507144035 13 281 6.4 12.9 0.00 0.00 0.00 61 1017.1
20260507143526 13 265 9.7 14.5 0.00 0.00 0.00 60 1017.1
20260507143144 13 262 9.7 14.5 0.00 0.00 0.00 60 1017.0
20260507142523 12 277 6.4 9.7 0.00 0.00 0.00 63 1017.2
20260507142038 12 261 4.8 9.7 0.00 0.00 0.00 66 1017.1
20260507141655 12 289 1.6 4.8 0.00 0.00 0.00 65 1017.1
20260507141023 12 278 1.6 6.4 0.00 0.00 0.00 64 1017.1
20260507140522 12 279 3.2 9.7 0.00 0.00 0.00 64 1017.0
20260507140148 11 284 6.4 9.7 0.00 0.00 0.00 63 1017.0
20260507135527 11 275 4.8 9.7 0.00 0.00 0.00 62 1016.8
20260507135038 11 265 1.6 9.7 0.00 0.00 0.00 63 1016.8
20260507134638 11 254 3.2 12.9 0.00 0.00 0.00 62 1016.7
20260507134035 12 277 8.0 16.1 0.00 0.00 0.00 61 1016.7
20260507133523 12 285 9.7 16.1 0.00 0.00 0.00 60 1016.7
20260507133136 12 262 11.3 16.1 0.00 0.00 0.00 60 1016.6
20260507132528 12 266 11.3 19.3 0.00 0.00 0.00 62 1016.7
20260507132028 12 269 12.9 20.9 0.00 0.00 0.00 60 1016.7
20260507131622 12 268 16.1 20.9 0.00 0.00 0.00 59 1016.5
20260507131019 12 275 14.5 20.9 0.00 0.00 0.00 60 1016.5
20260507130531 12 277 11.3 19.3 0.00 0.00 0.00 61 1016.5
20260507130111 12 267 12.9 19.3 0.00 0.00 0.00 62 1016.4
20260507125531 12 264 11.3 16.1 0.00 0.00 0.00 62 1016.2
20260507125023 12 256 11.3 17.7 0.00 0.00 0.00 62 1016.2
20260507124627 12 248 9.7 16.1 0.00 0.00 0.00 62 1016.2
20260507124040 12 263 9.7 17.7 0.00 0.00 0.00 62 1016.2
20260507123519 12 236 12.9 16.1 0.00 0.00 0.00 61 1016.2
20260507123119 12 226 11.3 14.5 0.00 0.00 0.00 61 1016.1
20260507122541 12 240 6.4 11.3 0.00 0.00 0.00 61 1016.1
20260507122021 12 262 6.4 16.1 0.00 0.00 0.00 59 1016.0
20260507121642 13 259 9.7 19.3 0.00 0.00 0.00 55 1016.0
20260507121029 13 265 12.9 19.3 0.00 0.00 0.00 55 1016.1
20260507120539 13 244 11.3 16.1 0.00 0.00 0.00 55 1016.1
20260507120215 13 220 11.3 17.7 0.00 0.00 0.00 55 1016.1
20260507115522 13 250 11.3 20.9 0.00 0.00 0.00 54 1016.1
20260507115022 13 257 17.7 25.7 0.00 0.00 0.00 54 1016.1
20260507114700 13 246 17.7 25.7 0.00 0.00 0.00 54 1016.0
20260507114035 13 245 17.7 25.7 0.00 0.00 0.00 55 1016.2
20260507113520 13 250 14.5 19.3 0.00 0.00 0.00 56 1016.0
20260507113151 13 244 11.3 19.3 0.00 0.00 0.00 57 1016.1
20260507112541 13 237 12.9 17.7 0.00 0.00 0.00 59 1016.1
20260507112033 13 223 8.0 17.7 0.00 0.00 0.00 59 1016.1
20260507111705 13 258 9.7 16.1 0.00 0.00 0.00 57 1016.0
20260507111027 13 242 12.9 22.5 0.00 0.00 0.00 57 1016.0
20260507110538 13 260 14.5 22.5 0.00 0.00 0.00 59 1015.8
20260507110159 13 238 11.3 19.3 0.00 0.00 0.00 61 1015.9
20260507105533 13 229 11.3 19.3 0.00 0.00 0.00 61 1016.0
20260507105037 12 273 12.9 20.9 0.00 0.00 0.00 62 1015.9
20260507104652 13 279 16.1 20.9 0.00 0.00 0.00 63 1015.9
20260507104040 13 286 14.5 17.7 0.00 0.00 0.00 63 1015.9
20260507103533 13 275 11.3 17.7 0.00 0.00 0.00 62 1015.9
20260507103159 13 278 12.9 24.1 0.00 0.00 0.00 63 1015.9
20260507102528 13 277 16.1 27.4 0.00 0.00 0.00 63 1015.9
20260507102026 13 279 16.1 32.2 0.00 0.00 0.00 63 1015.9
20260507101702 13 293 17.7 27.4 0.00 0.00 0.00 63 1015.8
20260507101028 13 273 12.9 19.3 0.00 0.00 0.00 63 1015.8
20260507100527 13 288 11.3 16.1 0.00 0.00 0.00 64 1015.7
20260507100138 13 277 6.4 17.7 0.00 0.00 0.00 62 1015.7
20260507095532 13 300 9.7 16.1 0.00 0.00 0.00 63 1015.7
20260507095023 13 284 11.3 19.3 0.00 0.00 0.00 63 1015.8
20260507094652 13 284 12.9 25.7 0.00 0.00 0.00 63 1015.7
20260507094042 13 296 19.3 30.6 0.00 0.00 0.00 62 1015.5
20260507093534 13 286 19.3 38.6 0.00 0.00 0.00 61 1015.4
20260507093149 14 269 22.5 41.8 0.00 0.00 0.00 59 1015.3
20260507092523 14 269 29.0 41.8 0.00 0.00 0.00 59 1015.3
20260507092026 14 269 27.4 38.6 0.00 0.00 0.00 61 1015.3
20260507091652 13 275 27.4 37.0 0.00 0.00 0.00 64 1015.5
20260507091045 13 279 17.7 24.1 0.00 0.00 0.00 65 1015.5
20260507090542 13 290 17.7 24.1 0.00 0.00 0.00 66 1015.6
20260507090209 13 294 19.3 24.1 0.00 0.00 0.00 65 1015.5
20260507085522 13 281 20.9 24.1 0.00 0.00 0.00 64 1015.5
20260507085035 13 280 16.1 19.3 0.00 0.00 0.00 63 1015.6
20260507084701 13 279 16.1 20.9 0.00 0.00 0.00 63 1015.7
20260507084022 14 299 16.1 24.1 0.00 0.00 0.00 61 1015.7
20260507083535 14 296 16.1 27.4 0.00 0.00 0.00 61 1015.6
20260507083144 14 285 17.7 32.2 0.00 0.00 0.00 60 1015.4
20260507082522 15 271 24.1 40.2 0.00 0.00 0.00 59 1015.0
20260507082022 15 285 25.7 41.8 0.00 0.00 0.00 59 1014.8
20260507081641 15 275 32.2 43.5 0.00 0.00 0.00 58 1014.8
20260507081019 15 277 25.7 37.0 0.00 0.00 0.00 58 1015.0
20260507080541 15 268 22.5 33.8 0.00 0.00 0.00 58 1015.0
20260507080159 15 278 25.7 33.8 0.00 0.00 0.00 59 1014.9
20260507075526 15 279 24.1 30.6 0.00 0.00 0.00 60 1015.3
20260507075035 14 280 16.1 27.4 0.00 0.00 0.00 60 1015.4
20260507074618 15 292 12.9 20.9 0.00 0.00 0.00 59 1015.4
20260507074022 15 311 8.0 14.5 0.00 0.00 0.00 58 1015.3
20260507073542 15 300 8.0 22.5 0.00 0.00 0.00 58 1015.4
20260507073142 15 273 14.5 24.1 0.00 0.00 0.00 56 1015.4
20260507072524 15 277 16.1 29.0 0.00 0.00 0.00 59 1015.3
20260507072030 15 281 17.7 29.0 0.00 0.00 0.00 59 1015.0
20260507071636 14 275 17.7 24.1 0.00 0.00 0.00 61 1015.0
20260507071043 14 283 17.7 24.1 0.00 0.00 0.00 60 1014.8
20260507070523 15 293 16.1 19.3 0.00 0.00 0.00 59 1015.2
20260507070147 15 309 12.9 16.1 0.00 0.00 0.00 58 1015.3
20260507065521 15 280 11.3 16.1 0.00 0.00 0.00 56 1015.2
20260507065022 15 250 11.3 16.1 0.00 0.00 0.00 56 1015.3
20260507064623 15 285 11.3 17.7 0.00 0.00 0.00 57 1015.4
20260507064044 15 295 11.3 17.7 0.00 0.00 0.00 57 1015.2
20260507063542 15 275 12.9 22.5 0.00 0.00 0.00 57 1015.0
20260507063118 15 278 14.5 24.1 0.00 0.00 0.00 57 1014.5
20260507062523 16 290 20.9 30.6 0.00 0.00 0.00 55 1014.6
20260507062027 16 267 22.5 30.6 0.00 0.00 0.00 56 1014.6
20260507061632 15 278 20.9 25.7 0.00 0.00 0.00 57 1014.6
20260507061038 16 272 14.5 25.7 0.00 0.00 0.00 56 1014.7
20260507060522 16 271 17.7 32.2 0.00 0.00 0.00 54 1014.7
20260507060136 16 306 22.5 32.2 0.00 0.00 0.00 53 1014.6
20260507055521 16 261 20.9 30.6 0.00 0.00 0.00 52 1014.7
20260507055024 17 294 20.9 30.6 0.00 0.00 0.00 52 1014.6
20260507054624 17 297 25.7 32.2 0.00 0.00 0.00 51 1014.5
20260507054041 17 294 24.1 38.6 0.00 0.00 0.00 49 1014.6
20260507053535 17 293 27.4 48.3 0.00 0.00 0.00 48 1014.4
20260507053121 18 288 27.4 48.3 0.00 0.00 0.00 47 1014.5
20260507052526 18 295 37.0 45.1 0.00 0.00 0.00 47 1014.3
20260507052028 17 288 27.4 35.4 0.00 0.00 0.00 48 1014.2
20260507051633 18 302 25.7 33.8 0.00 0.00 0.00 47 1014.3
20260507051041 18 287 11.3 20.9 0.00 0.00 0.00 48 1014.4
20260507050531 18 295 14.5 20.9 0.00 0.00 0.00 47 1014.3
20260507050128 18 302 9.7 24.1 0.00 0.00 0.00 47 1014.4
20260507045530 18 294 12.9 27.4 0.00 0.00 0.00 46 1014.4
20260507045020 18 257 19.3 27.4 0.00 0.00 0.00 45 1014.4
20260507044628 18 287 19.3 33.8 0.00 0.00 0.00 44 1014.4
20260507044030 19 313 24.1 33.8 0.00 0.00 0.00 44 1014.3
20260507043531 19 292 24.1 32.2 0.00 0.00 0.00 43 1014.2
20260507043126 19 260 22.5 32.2 0.00 0.00 0.00 43 1014.1
20260507042527 19 293 19.3 37.0 0.00 0.00 0.00 43 1014.0
20260507042034 20 249 19.3 37.0 0.00 0.00 0.00 40 1014.0
20260507041600 20 292 29.0 38.6 0.00 0.00 0.00 41 1013.6
20260507041035 19 297 30.6 38.6 0.00 0.00 0.00 41 1013.6
20260507040523 19 302 24.1 38.6 0.00 0.00 0.00 42 1013.6
20260507040140 20 302 27.4 35.4 0.00 0.00 0.00 42 1013.6
20260507035534 20 297 27.4 40.2 0.00 0.00 0.00 41 1013.6
20260507035040 20 279 32.2 40.2 0.00 0.00 0.00 41 1013.5
20260507034628 19 281 25.7 35.4 0.00 0.00 0.00 43 1013.5
20260507034023 19 289 24.1 33.8 0.00 0.00 0.00 43 1013.6
20260507033531 19 292 22.5 30.6 0.00 0.00 0.00 45 1013.7
20260507033054 19 294 19.3 24.1 0.00 0.00 0.00 45 1013.6
20260507032520 20 274 17.7 24.1 0.00 0.00 0.00 43 1013.6
20260507032028 20 290 12.9 19.3 0.00 0.00 0.00 44 1013.6
20260507031629 20 297 12.9 22.5 0.00 0.00 0.00 42 1013.5
20260507031043 20 277 14.5 24.1 0.00 0.00 0.00 41 1013.6
20260507030533 20 280 16.1 27.4 0.00 0.00 0.00 42 1013.4
20260507030126 20 282 20.9 30.6 0.00 0.00 0.00 40 1013.3
20260507025528 21 284 22.5 32.2 0.00 0.00 0.00 39 1013.2
20260507025023 21 279 25.7 32.2 0.00 0.00 0.00 38 1013.3
20260507024629 21 254 24.1 37.0 0.00 0.00 0.00 36 1013.3
20260507024018 22 288 29.0 37.0 0.00 0.00 0.00 33 1013.4
20260507023531 22 267 24.1 32.2 0.00 0.00 0.00 33 1013.4
20260507023121 22 279 22.5 29.0 0.00 0.00 0.00 33 1013.2
20260507022523 22 290 20.9 32.2 0.00 0.00 0.00 33 1013.1
20260507022044 22 288 24.1 35.4 0.00 0.00 0.00 32 1013.1
20260507021628 22 275 29.0 37.0 0.00 0.00 0.00 32 1013.0
20260507021042 22 276 29.0 41.8 0.00 0.00 0.00 32 1013.0
20260507020523 23 283 27.4 41.8 0.00 0.00 0.00 32 1012.9
20260507020138 23 284 33.8 41.8 0.00 0.00 0.00 31 1012.9
20260507015522 23 304 32.2 41.8 0.00 0.00 0.00 32 1013.0
20260507015047 23 285 20.9 37.0 0.00 0.00 0.00 32 1013.1
20260507014618 24 290 25.7 38.6 0.00 0.00 0.00 28 1012.9
20260507014039 25 299 30.6 43.5 0.00 0.00 0.00 27 1012.7
20260507013521 25 292 29.0 43.5 0.00 0.00 0.00 27 1012.7
20260507013101 25 311 29.0 41.8 0.00 0.00 0.00 28 1012.8
20260507012527 25 290 22.5 45.1 0.00 0.00 0.00 27 1012.7
20260507012039 25 319 30.6 45.1 0.00 0.00 0.00 26 1012.4
20260507011632 25 298 35.4 51.5 0.00 0.00 0.00 25 1012.7
20260507011022 25 302 37.0 51.5 0.00 0.00 0.00 24 1012.6
20260507010521 25 295 38.6 48.3 0.00 0.00 0.00 24 1012.5
20260507010128 26 311 29.0 48.3 0.00 0.00 0.00 24 1012.5
20260507005523 26 306 30.6 45.1 0.00 0.00 0.00 24 1012.6
20260507005039 26 298 33.8 49.9 0.00 0.00 0.00 23 1012.5
20260507004627 26 302 37.0 49.9 0.00 0.00 0.00 23 1012.5
20260507004021 26 301 33.8 48.3 0.00 0.00 0.00 24 1012.4
20260507003528 26 332 33.8 45.1 0.00 0.00 0.00 23 1012.5
20260507003131 26 309 30.6 38.6 0.00 0.00 0.00 23 1012.5
20260507002530 27 323 29.0 38.6 0.00 0.00 0.00 23 1012.5
20260507002021 27 317 25.7 38.6 0.00 0.00 0.00 24 1012.4
20260507001630 27 317 29.0 38.6 0.00 0.00 0.00 23 1012.3
20260507001021 28 308 14.5 25.7 0.00 0.00 0.00 23 1012.5
20260507000536 28 338 14.5 24.1 0.00 0.00 0.00 24 1012.4
20260507000135 28 300 17.7 27.4 0.00 0.00 0.00 23 1012.2
20260506235539 28 276 17.7 33.8 0.00 0.00 0.00 22 1012.4
20260506235043 28 279 24.1 33.8 0.00 0.00 0.00 22 1012.4
20260506234559 29 269 19.3 33.8 0.00 0.00 0.00 23 1012.4
20260506234037 29 285 22.5 33.8 0.00 0.00 0.00 26 1012.3
20260506233521 28 296 12.9 30.6 0.00 0.00 0.00 25 1012.2
20260506233129 28 277 14.5 24.1 0.00 0.00 0.00 31 1012.3
20260506232533 28 206 9.7 27.4 0.00 0.00 0.00 33 1012.3
20260506232027 27 200 11.3 27.4 0.00 0.00 0.00 34 1012.0
20260506231637 27 201 12.9 22.5 0.00 0.00 0.00 34 1012.1
20260506231020 27 202 4.8 19.3 0.00 0.00 0.00 32 1012.0
20260506230531 27 210 8.0 32.2 0.00 0.00 0.00 32 1012.0
20260506230131 28 223 17.7 30.6 0.00 0.00 0.00 31 1012.1
20260506225523 28 209 19.3 30.6 0.00 0.00 0.00 31 1012.0
20260506225023 28 211 16.1 29.0 0.00 0.00 0.00 33 1012.1
20260506224640 28 227 9.7 30.6 0.00 0.00 0.00 32 1012.1
20260506224020 28 211 11.3 30.6 0.00 0.00 0.00 33 1012.2
20260506223530 28 217 12.9 35.4 0.00 0.00 0.00 32 1012.2
20260506223108 28 215 17.7 35.4 0.00 0.00 0.00 32 1012.2
20260506222523 28 182 14.5 32.2 0.00 0.00 0.00 35 1012.3
20260506222034 28 181 14.5 32.2 0.00 0.00 0.00 36 1012.3
20260506221632 28 167 17.7 30.6 0.00 0.00 0.00 37 1012.4
20260506221029 28 175 17.7 30.6 0.00 0.00 0.00 37 1012.6
20260506220543 28 202 11.3 27.4 0.00 0.00 0.00 40 1012.6
20260506220131 27 175 14.5 27.4 0.00 0.00 0.00 37 1012.9
20260506215516 27 178 14.5 30.6 0.00 0.00 0.00 36 1012.8
20260506215038 27 193 16.1 30.6 0.00 0.00 0.00 35 1012.9
20260506214627 27 197 16.1 29.0 0.00 0.00 0.00 35 1012.9
20260506214032 28 215 9.7 27.4 0.00 0.00 0.00 36 1012.9
20260506213536 28 186 4.8 25.7 0.00 0.00 0.00 37 1013.0
20260506213134 27 114 14.5 27.4 0.00 0.00 0.00 37 1012.9
20260506212533 27 213 14.5 29.0 0.00 0.00 0.00 36 1013.0
20260506212022 26 212 16.1 29.0 0.00 0.00 0.00 37 1013.0
20260506211558 26 234 11.3 27.4 0.00 0.00 0.00 38 1013.1
20260506211035 26 210 16.1 27.4 0.00 0.00 0.00 37 1013.0
20260506210541 26 196 14.5 25.7 0.00 0.00 0.00 37 1013.2
20260506210120 27 202 14.5 32.2 0.00 0.00 0.00 38 1013.2
20260506205530 27 200 19.3 27.4 0.00 0.00 0.00 37 1013.2
20260506205022 28 168 16.1 24.1 0.00 0.00 0.00 39 1013.3
20260506204612 27 163 11.3 27.4 0.00 0.00 0.00 39 1013.3
20260506204027 27 184 16.1 27.4 0.00 0.00 0.00 40 1013.3
20260506203518 27 156 14.5 29.0 0.00 0.00 0.00 41 1013.3
20260506203144 27 183 14.5 29.0 0.00 0.00 0.00 39 1013.4
20260506202515 27 206 16.1 25.7 0.00 0.00 0.00 38 1013.5
20260506202039 27 198 12.9 25.7 0.00 0.00 0.00 41 1013.6
20260506201643 27 188 14.5 24.1 0.00 0.00 0.00 42 1013.5
20260506201028 27 194 9.7 29.0 0.00 0.00 0.00 42 1013.5
20260506200534 27 187 17.7 29.0 0.00 0.00 0.00 42 1013.7
20260506200149 26 159 11.3 25.7 0.00 0.00 0.00 41 1013.6
20260506195541 26 175 16.1 22.5 0.00 0.00 0.00 43 1013.7
20260506195022 26 168 16.1 22.5 0.00 0.00 0.00 43 1013.9
20260506194612 26 181 14.5 24.1 0.00 0.00 0.00 44 1014.1
20260506194035 26 155 14.5 27.4 0.00 0.00 0.00 43 1014.1
20260506193541 26 188 11.3 22.5 0.00 0.00 0.00 44 1014.2
20260506193151 26 161 11.3 22.5 0.00 0.00 0.00 44 1014.3
20260506192535 26 163 14.5 27.4 0.00 0.00 0.00 44 1014.2
20260506192038 26 161 12.9 20.9 0.00 0.00 0.00 44 1014.3
20260506191651 26 200 14.5 22.5 0.00 0.00 0.00 44 1014.3
20260506191029 26 189 16.1 20.9 0.00 0.00 0.00 43 1014.4
20260506190543 25 169 11.3 22.5 0.00 0.00 0.00 45 1014.3
20260506190147 25 172 14.5 24.1 0.00 0.00 0.00 45 1014.2
20260506185532 25 212 14.5 20.9 0.00 0.00 0.00 44 1014.4
20260506185030 25 194 11.3 17.7 0.00 0.00 0.00 45 1014.3
20260506184635 25 126 12.9 20.9 0.00 0.00 0.00 46 1014.4
20260506184026 25 177 12.9 22.5 0.00 0.00 0.00 44 1014.6
20260506183540 25 190 14.5 22.5 0.00 0.00 0.00 45 1014.6
20260506183148 25 181 12.9 24.1 0.00 0.00 0.00 47 1014.5
20260506182530 24 182 11.3 24.1 0.00 0.00 0.00 47 1014.6
20260506182027 24 182 14.5 24.1 0.00 0.00 0.00 47 1014.7
20260506181630 24 182 11.3 24.1 0.00 0.00 0.00 48 1014.7
20260506181030 23 183 12.9 24.1 0.00 0.00 0.00 49 1014.7
20260506180534 23 195 16.1 24.1 0.00 0.00 0.00 48 1014.7
20260506180155 23 180 12.9 24.1 0.00 0.00 0.00 49 1014.7
20260506175523 23 174 11.3 24.1 0.00 0.00 0.00 49 1014.7
20260506175022 23 169 12.9 24.1 0.00 0.00 0.00 50 1014.7
20260506174651 23 187 14.5 24.1 0.00 0.00 0.00 50 1014.8
20260506174022 23 217 11.3 19.3 0.00 0.00 0.00 51 1014.9
20260506173535 22 182 12.9 22.5 0.00 0.00 0.00 51 1014.9
20260506173152 22 167 12.9 22.5 0.00 0.00 0.00 51 1014.9
20260506172542 22 196 12.9 20.9 0.00 0.00 0.00 51 1014.9
20260506172030 22 180 9.7 24.1 0.00 0.00 0.00 54 1014.9
20260506171657 22 159 14.5 25.7 0.00 0.00 0.00 53 1014.9
20260506171026 22 218 12.9 24.1 0.00 0.00 0.00 52 1015.1
20260506170538 22 153 9.7 17.7 0.00 0.00 0.00 54 1015.1
20260506170155 22 155 11.3 17.7 0.00 0.00 0.00 54 1015.2
20260506165541 22 177 9.7 17.7 0.00 0.00 0.00 55 1015.2
20260506165036 21 185 9.7 19.3 0.00 0.00 0.00 55 1015.3
20260506164712 21 165 9.7 22.5 0.00 0.00 0.00 57 1015.4
20260506164021 21 186 11.3 19.3 0.00 0.00 0.00 56 1015.3
20260506163525 21 176 12.9 19.3 0.00 0.00 0.00 56 1015.4
20260506163207 21 148 11.3 22.5 0.00 0.00 0.00 58 1015.3
20260506162522 20 184 11.3 20.9 0.00 0.00 0.00 57 1015.3
20260506162022 20 184 9.7 19.3 0.00 0.00 0.00 59 1015.3
20260506161708 20 161 9.7 19.3 0.00 0.00 0.00 59 1015.4
20260506161037 20 181 11.3 17.7 0.00 0.00 0.00 59 1015.3
20260506160522 20 158 11.3 17.7 0.00 0.00 0.00 60 1015.3
20260506160204 20 188 6.4 16.1 0.00 0.00 0.00 61 1015.2